STARLINK-4266 (52869 NORAD) Tracking and Keplerian Element Data

This shows tracking and keplerian element data for the satellite.

Feedback or suggestion? Click here.




ElementValue
Catalog52869
NameSTARLINK-4266
Epoch Orbit1304
Epoch Day248.25001157
Epoch Year2022
RAAN10.6276
Inclination53.2172
Eccentricity0.0001348
Argument of Perigee43.6457
Mean Anonmoly2.7466
Mean Motion15.57106287
Decay Rate-0.01061092
L11 52869U 22062AR 22248.25001157 -.01061092 00000+0 -15809-1 0 9995
L22 52869 53.2172 10.6276 0001348 43.6457 2.7466 15.57106287 13044

Live tracking and technical data element details for STARLINK-4266 (NORAD 52869). STARLINK-4266 can be tracked NOW for your location showing map with azimuth and elevation plus other details from your city location.

Track the satellite on the map from your city or location and see movement details for azimuth, elevation, latitude, longitude, range, height, and movement on the map or in text.







IsCatalogInMostPopularTable: catalog: 52869, numindb: 5
Update: records affected: 1



GetName: 52869 STARLINK-4266

Hit Count: updated at: Sun, 25 Sep 2022 09:00:26 GMT